Flag for U.S.A. Weather past 2 weeks in Clovis, New Mexico, U.S.A.

Now
87 °F

Sunny.


Feels Like: 87 °F
Forecast: 68 / 94 °F
Wind: 3 mph from North

Location: Cannon Air Force Base / Clovis

Current Time: Jul 28, 2015 at 12:00:36 PM

Latest Report: Jul 28, 2015 at 10:58 AM


Visibility: 7 mi

Pressure: 29.85 "Hg (25.79 "Hg at 1300m altitude)

Humidity: 42%

Dew point: 61 °F

Location of ClovisLocation

Historic Weather in Clovis — Graph

°F

Clovis temperature yesterday

Maximum temperature yesterday: 99 °F (at 3:58 PM)
Minimum temperature yesterday: 67 °F (at 5:58 AM)
Average temperature yesterday: 83 °F

Past Weeks' High & Low Weather Summary

 TemperatureHumidityPressure
High99 °F (Jul 27, 3:58 PM)98% (Jul 21, 1:58 AM)30.11 "Hg (Jul 21, 1:58 AM)
Low64 °F (Jul 21, 5:58 AM)19% (Jul 27, 2:58 PM)29.73 "Hg (Jul 27, 5:58 PM)
Average79 °F55%29.85 "Hg
* Reported Jul 13 9:58 AM — Jul 28 9:58 AM, Clovis, Weather by CustomWeather, © 2015

Note: Actual official high and low records may vary slightly from our data, if they occured in-between our weather recording intervals... More about our weather records

Advertising

Clovis weather history for previous 24 hours

 ConditionsComfort  
Time TempWeatherWind HumidityBarometerVisibility
9:58 AM
Tue, Jul 28
82 °FSunny.7 mph49%29.85 "Hg10 mi
8:58 AM80 °FSunny.14 mph52%29.85 "Hg10 mi
7:58 AM77 °FSunny.10 mph57%29.86 "Hg10 mi
6:58 AM74 °FClear.7 mph60%29.84 "Hg10 mi
5:58 AM69 °FClear.3 mph70%29.84 "Hg10 mi
4:58 AM69 °FClear.7 mph75%29.80 "Hg10 mi
3:58 AM69 °FClear.8 mph74%29.80 "Hg10 mi
2:58 AM74 °FPassing clouds.9 mph58%29.80 "Hg10 mi
1:58 AM71 °FClear.9 mph60%29.83 "Hg10 mi
12:58 AM76 °FClear.9 mph50%29.83 "Hg10 mi
11:58 PM
Mon, Jul 27
74 °FClear.13 mph63%29.85 "Hg10 mi
10:58 PM78 °FPassing clouds.6 mph55%29.85 "Hg10 mi
9:58 PM84 °FThundershowers. Passing clouds.15 mph44%29.84 "Hg10 mi
8:58 PM83 °FThunderstorms. Partly cloudy.12 mph43%29.80 "Hg10 mi
7:58 PM87 °FBroken clouds.13 mph38%29.76 "Hg10 mi
6:58 PM90 °FSunny.16 mph33%29.74 "Hg10 mi
5:58 PM93 °FSunny.16 mph30%29.73 "Hg10 mi
4:58 PM96 °FSunny.15 mph21%29.73 "Hg10 mi
3:58 PM99 °FSunny.13 mph20%29.73 "Hg10 mi
2:58 PM98 °FSunny.15 mph19%29.75 "Hg9 mi
1:58 PM96 °FSunny.14 mph21%29.78 "Hg10 mi
12:58 PM95 °FScattered clouds.10 mph23%29.80 "Hg10 mi
Weather by CustomWeather, © 2015

See weather overviewHow to use our weather pages